FW7008 Weather Reports


Display with metric or nautical units.
time (UTC)temp
F
wind
direction
speed
MPH
gust
MPH
rain 1hr
in
rain 24hr
in
rain mn
in
humidity
%
barometer
mb
20260507051214 60 184 0.0 0.0 0.00 0.00 0.00 93 1018.3
20260507050711 60 196 0.0 0.0 0.00 0.00 0.00 92 1018.3
20260507050208 60 238 0.0 0.0 0.00 0.00 0.00 92 1018.3
20260507045705 60 243 0.0 0.0 0.00 0.00 0.00 93 1018.3
20260507045201 60 138 0.0 0.0 0.00 0.00 0.00 93 1017.9
20260507044658 60 149 0.0 0.0 0.00 0.00 0.00 93 1018.3
20260507044154 60 229 0.0 0.0 0.00 0.00 0.00 93 1018.3
20260507043651 60 187 0.0 0.0 0.00 0.00 0.00 93 1018.3
20260507043148 60 160 0.0 0.0 0.00 0.00 0.00 93 1018.3
20260507042644 61 248 0.0 0.0 0.00 0.00 0.00 93 1018.3
20260507042139 61 223 0.0 0.0 0.00 0.00 0.00 93 1018.3
20260507041636 61 233 0.0 0.0 0.00 0.00 0.00 93 1017.9
20260507041127 61 178 0.0 0.0 0.00 0.00 0.00 93 1018.3
20260507040624 61 160 0.0 0.0 0.00 0.00 0.00 92 1017.9
20260507040121 61 272 0.0 0.0 0.00 0.00 0.00 92 1017.9
20260507035616 61 261 0.0 0.0 0.00 0.00 0.00 92 1017.9
20260507035113 61 233 0.0 0.0 0.00 0.00 0.00 92 1017.6
20260507034610 61 235 0.0 0.0 0.00 0.00 0.00 91 1017.6
20260507034107 61 202 0.0 0.0 0.00 0.00 0.00 92 1017.6
20260507033606 61 246 5.0 6.0 0.00 0.00 0.00 92 1017.6
20260507033102 61 264 7.0 8.0 0.00 0.00 0.00 91 1017.6
20260507032600 61 218 0.0 0.0 0.00 0.00 0.00 91 1017.6
20260507032056 61 253 0.0 0.0 0.00 0.00 0.00 92 1017.6
20260507031552 61 223 0.0 1.0 0.00 0.00 0.00 92 1017.6
20260507031049 61 242 0.0 0.0 0.00 0.00 0.00 92 1017.3
20260507030546 61 179 0.0 0.0 0.00 0.00 0.00 92 1017.3
20260507030044 61 209 0.0 0.0 0.00 0.00 0.00 91 1017.3
20260507025541 62 215 0.0 0.0 0.00 0.00 0.00 91 1017.3
20260507025038 62 218 5.0 7.0 0.00 0.00 0.00 91 1017.3
20260507024536 62 230 4.0 7.0 0.00 0.00 0.00 90 1017.3
20260507024032 62 269 0.0 0.0 0.00 0.00 0.00 89 1017.3
20260507023528 62 234 5.0 7.0 0.00 0.00 0.00 89 1016.9
20260507023026 62 252 7.0 10.0 0.00 0.00 0.00 87 1017.3
20260507022522 63 234 6.0 9.0 0.00 0.00 0.00 86 1017.3
20260507022012 63 231 0.0 0.0 0.00 0.00 0.00 85 1016.9
20260507021508 63 240 0.0 0.0 0.00 0.00 0.00 84 1016.9
20260507021005 63 258 0.0 0.0 0.00 0.00 0.00 85 1016.9
20260507020503 63 273 5.0 7.0 0.00 0.00 0.00 86 1016.9
20260507015959 63 252 0.0 0.0 0.00 0.00 0.00 87 1016.9
20260507015458 64 255 7.0 8.0 0.00 0.00 0.00 86 1016.9
20260507014955 64 244 4.0 6.0 0.00 0.00 0.00 85 1016.9
20260507014451 64 216 7.0 9.0 0.00 0.00 0.00 85 1016.9
20260507013947 64 217 2.0 5.0 0.00 0.00 0.00 85 1016.6
20260507013443 65 175 0.0 1.0 0.00 0.00 0.00 83 1016.6
20260507012941 64 259 5.0 8.0 0.00 0.00 0.00 84 1016.9
20260507012437 65 265 7.0 11.0 0.00 0.00 0.00 84 1016.6
20260507011934 65 244 6.0 9.0 0.00 0.00 0.00 82 1016.6
20260507011432 65 227 8.0 10.0 0.00 0.00 0.00 82 1016.6
20260507010931 64 260 7.0 9.0 0.00 0.00 0.00 82 1016.6
20260507010427 65 232 5.0 7.0 0.00 0.00 0.00 83 1016.6
20260507005924 65 227 5.0 6.0 0.00 0.00 0.00 83 1016.6
20260507005421 65 261 9.0 10.0 0.00 0.00 0.00 84 1016.6
20260507004918 65 236 7.0 8.0 0.00 0.00 0.00 83 1016.6
20260507004414 66 229 7.0 8.0 0.00 0.00 0.00 82 1016.6
20260507003912 65 184 4.0 7.0 0.00 0.00 0.00 83 1016.6
20260507003407 66 238 9.0 13.0 0.00 0.00 0.00 82 1016.6
20260507002903 66 238 12.0 14.0 0.00 0.00 0.00 82 1016.6
20260507002359 65 267 7.0 10.0 0.00 0.00 0.00 82 1016.6
20260507001856 66 303 2.0 5.0 0.00 0.00 0.00 82 1016.6
20260507001353 66 220 7.0 10.0 0.00 0.00 0.00 82 1016.6
20260507000850 66 236 1.0 2.0 0.00 0.00 0.00 80 1016.9
20260507000345 66 221 6.0 10.0 0.00 0.00 0.00 80 1016.6
20260506235841 66 237 9.0 15.0 0.00 0.00 0.00 80 1016.6
20260506235338 66 243 6.0 8.0 0.00 0.00 0.00 81 1016.9
20260506234834 66 234 9.0 14.0 0.00 0.00 0.00 82 1016.9
20260506234332 66 199 10.0 11.0 0.00 0.00 0.00 81 1016.9
20260506233830 67 162 6.0 9.0 0.00 0.00 0.00 79 1016.6
20260506233325 67 269 11.0 13.0 0.00 0.00 0.00 76 1016.9
20260506232822 68 261 12.0 15.0 0.00 0.00 0.00 74 1016.6
20260506232318 68 239 5.0 7.0 0.00 0.00 0.00 74 1016.9
20260506231815 68 251 7.0 9.0 0.00 0.00 0.00 74 1016.6
20260506231313 67 224 0.0 0.0 0.00 0.00 0.00 74 1016.9
20260506230810 68 237 10.0 13.0 0.00 0.00 0.00 71 1016.6
20260506230306 68 175 7.0 9.0 0.00 0.00 0.00 71 1016.9
20260506225803 68 167 5.0 8.0 0.00 0.00 0.00 73 1016.9
20260506225300 68 211 8.0 13.0 0.00 0.00 0.00 73 1017.3
20260506224756 68 242 10.0 13.0 0.00 0.00 0.00 74 1016.9
20260506224254 68 220 3.0 5.0 0.00 0.00 0.00 74 1017.3
20260506223750 68 246 9.0 13.0 0.00 0.00 0.00 72 1017.3
20260506223246 68 240 5.0 8.0 0.00 0.00 0.00 73 1017.3
20260506222743 68 195 8.0 10.0 0.00 0.00 0.00 74 1017.3
20260506222238 68 274 13.0 16.0 0.00 0.00 0.00 74 1017.3
20260506221731 68 246 12.0 16.0 0.00 0.00 0.00 75 1017.3
20260506221228 69 242 11.0 13.0 0.00 0.00 0.00 74 1017.3
20260506220725 68 237 8.0 10.0 0.00 0.00 0.00 74 1017.6
20260506220220 68 250 9.0 11.0 0.00 0.00 0.00 74 1017.3
20260506215717 69 283 11.0 14.0 0.00 0.00 0.00 73 1017.6
20260506215212 69 178 6.0 8.0 0.00 0.00 0.00 71 1017.3
20260506214709 68 273 7.0 8.0 0.00 0.00 0.00 73 1017.6
20260506214207 68 252 10.0 11.0 0.00 0.00 0.00 75 1017.9
20260506213705 69 255 11.0 13.0 0.00 0.00 0.00 72 1017.6
20260506213202 69 242 10.0 13.0 0.00 0.00 0.00 73 1017.9
20260506212659 69 269 5.0 9.0 0.00 0.00 0.00 72 1017.6
20260506212154 69 268 7.0 11.0 0.00 0.00 0.00 74 1017.6
20260506211650 68 230 7.0 8.0 0.00 0.00 0.00 76 1017.9
20260506211147 68 267 9.0 11.0 0.00 0.00 0.00 76 1017.6
20260506210644 69 236 10.0 11.0 0.00 0.00 0.00 73 1017.9
20260506210140 68 253 12.0 14.0 0.00 0.00 0.00 76 1017.9
20260506205638 68 248 11.0 13.0 0.00 0.00 0.00 74 1017.9
20260506205132 68 241 12.0 14.0 0.00 0.00 0.00 74 1017.9
20260506204630 69 307 10.0 13.0 0.00 0.00 0.00 71 1017.9
20260506204127 70 237 9.0 13.0 0.00 0.00 0.00 69 1018.3
20260506203625 70 294 11.0 13.0 0.00 0.00 0.00 70 1018.3
20260506203122 70 260 9.0 11.0 0.00 0.00 0.00 67 1017.9
20260506202620 70 157 0.0 0.0 0.00 0.00 0.00 65 1018.3
20260506202115 70 234 11.0 13.0 0.00 0.00 0.00 66 1018.3
20260506201613 71 196 7.0 9.0 0.00 0.00 0.00 64 1018.3
20260506201109 71 216 3.0 7.0 0.00 0.00 0.00 64 1018.3
20260506200606 70 215 0.0 0.0 0.00 0.00 0.00 68 1018.3
20260506195559 71 148 0.0 0.0 0.00 0.00 0.00 68 1018.6
20260506195056 71 190 6.0 7.0 0.00 0.00 0.00 68 1018.6
20260506194554 70 266 7.0 9.0 0.00 0.00 0.00 70 1018.3
20260506194049 70 267 11.0 14.0 0.00 0.00 0.00 70 1018.3
20260506193547 70 252 5.0 7.0 0.00 0.00 0.00 69 1018.6
20260506193044 70 235 2.0 8.0 0.00 0.00 0.00 69 1018.3
20260506192541 69 211 7.0 8.0 0.00 0.00 0.00 69 1018.6
20260506192037 69 229 8.0 11.0 0.00 0.00 0.00 72 1018.6
20260506191534 69 279 5.0 6.0 0.00 0.00 0.00 71 1019.0
20260506191029 69 259 7.0 10.0 0.00 0.00 0.00 71 1019.0
20260506190527 70 257 6.0 8.0 0.00 0.00 0.00 70 1019.0
20260506190024 70 185 4.0 5.0 0.00 0.00 0.00 68 1018.6
20260506185521 69 237 5.0 7.0 0.00 0.00 0.00 68 1019.0
20260506185017 68 244 0.0 0.0 0.00 0.00 0.00 70 1019.0
20260506184515 69 198 5.0 7.0 0.00 0.00 0.00 69 1019.0
20260506184012 70 161 3.0 3.0 0.00 0.00 0.00 68 1019.0
20260506183507 68 263 4.0 6.0 0.00 0.00 0.00 71 1019.0
20260506183005 68 289 5.0 7.0 0.00 0.00 0.00 72 1019.3
20260506182501 69 164 4.0 5.0 0.00 0.00 0.00 70 1019.0
20260506181959 68 159 0.0 0.0 0.00 0.00 0.00 72 1019.0
20260506181457 68 272 0.0 0.0 0.00 0.00 0.00 71 1019.3
20260506180948 69 240 6.0 7.0 0.00 0.00 0.00 71 1019.3
20260506180444 68 181 0.0 0.0 0.00 0.00 0.00 72 1019.3
20260506175941 69 77 0.0 0.0 0.00 0.00 0.00 68 1019.3
20260506175438 69 218 0.0 0.0 0.00 0.00 0.00 71 1019.3
20260506174934 69 219 0.0 0.0 0.00 0.00 0.00 68 1019.3
20260506174432 70 181 0.0 0.0 0.00 0.00 0.00 66 1019.3
20260506173929 71 172 0.0 0.0 0.00 0.00 0.00 64 1019.3
20260506173426 69 48 0.0 0.0 0.00 0.00 0.00 67 1019.3
20260506172923 68 25 0.0 0.0 0.00 0.00 0.00 68 1019.3
20260506172420 67 264 0.0 0.0 0.00 0.00 0.00 70 1019.0
20260506171917 66 153 0.0 0.0 0.00 0.00 0.00 71 1019.3
20260506171414 67 111 0.0 0.0 0.00 0.00 0.00 72 1019.3
20260506170912 68 65 0.0 0.0 0.00 0.00 0.00 69 1019.3
20260506170408 69 102 0.0 0.0 0.00 0.00 0.00 69 1019.3
20260506165907 67 115 0.0 0.0 0.00 0.00 0.00 72 1019.0
20260506165405 67 116 0.0 0.0 0.00 0.00 0.00 71 1019.3
20260506164901 67 118 0.0 0.0 0.00 0.00 0.00 71 1019.3
20260506164357 67 146 0.0 0.0 0.00 0.00 0.00 72 1019.3
20260506163855 65 110 0.0 0.0 0.00 0.00 0.00 75 1019.3
20260506163349 65 108 0.0 0.0 0.00 0.00 0.00 74 1019.3
20260506162845 66 107 0.0 0.0 0.00 0.00 0.00 73 1019.3
20260506162343 66 104 0.0 0.0 0.00 0.00 0.00 73 1019.3
20260506161840 66 103 0.0 0.0 0.00 0.00 0.00 72 1019.0
20260506161338 64 105 0.0 0.0 0.00 0.00 0.00 74 1019.0
20260506160835 64 101 0.0 0.0 0.00 0.00 0.00 78 1019.0
20260506160332 64 110 0.0 0.0 0.00 0.00 0.00 79 1019.0
20260506155830 64 111 0.0 0.0 0.00 0.00 0.00 80 1019.3
20260506155326 65 116 0.0 0.0 0.00 0.00 0.00 80 1019.0
20260506153439 64 132 0.0 0.0 0.00 0.00 0.00 81 1019.3
20260506152936 63 115 0.0 0.0 0.00 0.00 0.00 83 1019.3
20260506152433 62 118 0.0 0.0 0.00 0.00 0.00 85 1019.3
20260506151932 62 114 0.0 0.0 0.00 0.00 0.00 84 1019.3
20260506151428 63 116 0.0 0.0 0.00 0.00 0.00 84 1019.3
20260506150926 63 120 0.0 0.0 0.00 0.00 0.00 83 1019.3
20260506150422 63 122 0.0 0.0 0.00 0.00 0.00 85 1019.3
20260506145919 62 124 0.0 0.0 0.00 0.00 0.00 84 1019.3
20260506145415 62 125 0.0 0.0 0.00 0.00 0.00 84 1019.3
20260506144913 62 123 0.0 0.0 0.00 0.00 0.00 84 1019.3
20260506144409 61 122 0.0 0.0 0.00 0.00 0.00 86 1019.3
20260506143908 61 121 0.0 0.0 0.00 0.00 0.00 85 1019.3
20260506143404 61 121 0.0 0.0 0.00 0.00 0.00 86 1019.3
20260506142902 60 122 0.0 0.0 0.00 0.00 0.00 86 1019.3
20260506142400 61 117 0.0 0.0 0.00 0.00 0.00 85 1019.0
20260506141858 59 129 0.0 0.0 0.00 0.00 0.00 89 1019.3
20260506141356 58 130 0.0 0.0 0.00 0.00 0.00 90 1019.0
20260506140854 57 129 0.0 0.0 0.00 0.00 0.00 91 1019.0
20260506140350 57 129 0.0 0.0 0.00 0.00 0.00 92 1019.0
20260506135848 57 128 0.0 0.0 0.00 0.00 0.00 93 1019.3
20260506135344 56 128 0.0 0.0 0.00 0.00 0.00 94 1019.0
20260506134840 55 129 0.0 0.0 0.00 0.00 0.00 95 1019.0
20260506134337 55 132 0.0 0.0 0.00 0.00 0.00 97 1019.0
20260506133834 54 132 0.0 0.0 0.00 0.00 0.00 97 1019.0
20260506133331 54 132 0.0 0.0 0.00 0.00 0.00 97 1019.0
20260506132827 52 132 0.0 0.0 0.00 0.00 0.00 97 1019.0
20260506132325 53 132 0.0 0.0 0.00 0.00 0.00 97 1018.6
20260506131823 53 132 0.0 0.0 0.00 0.00 0.00 97 1018.6
20260506131319 52 132 0.0 0.0 0.00 0.00 0.00 96 1018.3
20260506130816 53 132 0.0 0.0 0.00 0.00 0.00 96 1018.6
20260506130312 53 132 0.0 0.0 0.00 0.00 0.00 96 1018.3
20260506125810 53 132 0.0 0.0 0.00 0.00 0.00 97 1018.3
20260506125308 53 132 0.0 0.0 0.00 0.00 0.00 97 1018.3
20260506124807 53 132 0.0 0.0 0.00 0.00 0.00 96 1018.3
20260506124303 53 132 0.0 0.0 0.00 0.00 0.00 96 1018.3
20260506123801 53 132 0.0 0.0 0.00 0.00 0.00 96 1018.3
20260506123259 53 132 0.0 0.0 0.00 0.00 0.00 96 1018.3
20260506122756 54 132 0.0 0.0 0.00 0.00 0.00 96 1017.9
20260506122253 53 132 0.0 0.0 0.00 0.00 0.00 95 1017.9
20260506121751 54 132 0.0 0.0 0.00 0.00 0.00 96 1017.9
20260506121248 53 132 0.0 0.0 0.00 0.00 0.00 96 1018.3
20260506120745 53 132 0.0 0.0 0.00 0.00 0.00 96 1018.3
20260506120243 53 133 0.0 0.0 0.00 0.00 0.00 96 1017.9
20260506115740 53 135 0.0 0.0 0.00 0.00 0.00 96 1017.9
20260506115238 53 135 0.0 0.0 0.00 0.00 0.00 96 1017.9
20260506114736 53 135 0.0 0.0 0.00 0.00 0.00 96 1018.3
20260506114233 53 135 0.0 0.0 0.00 0.00 0.00 96 1017.9
20260506113731 53 135 0.0 0.0 0.00 0.00 0.00 96 1018.3
20260506113229 53 135 0.0 0.0 0.00 0.00 0.00 96 1017.9
20260506112725 53 135 0.0 0.0 0.00 0.00 0.00 95 1017.9
20260506112223 53 135 0.0 0.0 0.00 0.00 0.00 95 1017.9
20260506111720 53 135 0.0 0.0 0.00 0.00 0.00 95 1018.3
20260506111218 53 135 0.0 0.0 0.00 0.00 0.00 95 1017.9
20260506110714 53 135 0.0 0.0 0.00 0.00 0.00 95 1017.6
20260506110212 54 135 0.0 0.0 0.00 0.00 0.00 95 1017.9
20260506105708 54 135 0.0 0.0 0.00 0.00 0.00 95 1017.9
20260506105205 54 135 0.0 0.0 0.00 0.00 0.00 95 1017.9
20260506104704 54 135 0.0 0.0 0.00 0.00 0.00 94 1017.9
20260506104201 55 135 0.0 0.0 0.00 0.00 0.00 95 1017.9
20260506103658 55 135 0.0 0.0 0.00 0.00 0.00 95 1017.9
20260506103155 55 135 0.0 0.0 0.00 0.00 0.00 95 1017.9
20260506102652 54 135 0.0 0.0 0.00 0.00 0.00 95 1017.9
20260506102144 54 135 0.0 0.0 0.00 0.00 0.00 95 1017.9
20260506101641 55 135 0.0 0.0 0.00 0.00 0.00 95 1017.9
20260506101138 55 135 0.0 0.0 0.00 0.00 0.00 95 1017.9
20260506100636 55 135 0.0 0.0 0.00 0.00 0.00 95 1017.9
20260506100134 55 135 0.0 0.0 0.00 0.00 0.00 95 1017.9
20260506095632 55 135 0.0 0.0 0.00 0.00 0.00 95 1017.9
20260506095129 54 135 0.0 0.0 0.00 0.00 0.00 94 1017.9
20260506094626 55 135 0.0 0.0 0.00 0.00 0.00 93 1017.9
20260506094124 55 135 0.0 0.0 0.00 0.00 0.00 94 1017.9
20260506093622 56 135 0.0 0.0 0.00 0.00 0.00 93 1017.9
20260506093119 56 135 0.0 0.0 0.00 0.00 0.00 93 1017.9
20260506092617 56 135 0.0 0.0 0.00 0.00 0.00 93 1017.9
20260506092114 56 135 0.0 0.0 0.00 0.00 0.00 93 1018.3
20260506091612 56 135 0.0 0.0 0.00 0.00 0.00 92 1018.3
20260506091109 56 136 0.0 0.0 0.00 0.00 0.00 92 1018.3
20260506090607 57 136 0.0 0.0 0.00 0.00 0.00 92 1018.3
20260506085600 56 135 0.0 0.0 0.00 0.00 0.00 92 1018.3
20260506085056 56 135 0.0 0.0 0.00 0.00 0.00 92 1018.3
20260506084553 56 136 0.0 0.0 0.00 0.00 0.00 91 1018.3
20260506084049 56 136 0.0 0.0 0.00 0.00 0.00 91 1018.3
20260506083547 57 136 0.0 0.0 0.00 0.00 0.00 91 1018.3
20260506083044 57 136 0.0 0.0 0.00 0.00 0.00 92 1018.3
20260506082540 56 136 0.0 0.0 0.00 0.00 0.00 91 1018.3
20260506082036 57 136 0.0 0.0 0.00 0.00 0.00 91 1018.3
20260506081535 57 136 0.0 0.0 0.00 0.00 0.00 92 1018.3
20260506081032 57 136 0.0 0.0 0.00 0.00 0.00 92 1018.3
20260506080529 57 136 0.0 0.0 0.00 0.00 0.00 92 1018.3
20260506073513 57 136 0.0 0.0 0.00 0.00 0.00 91 1018.6
20260506073010 57 136 0.0 0.0 0.00 0.00 0.00 91 1018.3
20260506072507 58 136 0.0 0.0 0.00 0.00 0.00 91 1018.3
20260506072005 58 136 0.0 0.0 0.00 0.00 0.00 90 1018.3
20260506071502 58 137 0.0 0.0 0.00 0.00 0.00 90 1018.3
20260506070959 58 137 0.0 0.0 0.00 0.00 0.00 89 1017.9
20260506070456 59 137 0.0 0.0 0.00 0.00 0.00 89 1018.3
20260506062434 59 124 0.0 0.0 0.00 0.00 0.00 87 1018.3
20260506061929 59 117 0.0 0.0 0.00 0.00 0.00 87 1017.9
20260506061426 59 118 0.0 0.0 0.00 0.00 0.00 87 1017.9
20260506060924 59 119 0.0 0.0 0.00 0.00 0.00 87 1017.9
20260506060422 59 120 0.0 0.0 0.00 0.00 0.00 87 1017.9